Probability
2 1 2 3 3 1 1 2 3 3 2 2 2 2 1 0 0 0 0 0 0 0 0 0 0 0 0 0 0 0 1 2 2 1 0 0 0 0 0 1 1 1 2
2 2 3 3 3 2 1 2 3 3 3 2 1 1 0 0 0 0 0 0 0 0 0 0 0 0 0 0 0 0 1 2 1 0 0 0 0 0 0 1 1 1 2
3 3 3 3 3 3 1 1 2 3 3 1 0 0 0 0 0 0 0 0 0 0 0 0 0 0 0 0 0 0 1 2 1 0 0 0 0 0 0 1 1 0 1
2 2 2 3 3 3 3 2 2 2 2 1 0 0 0 0 0 0 0 0 0 0 0 0 0 0 0 0 0 0 1 1 0 0 0 0 0 0 0 0 0 0 0
1 1 2 3 3 4 4 3 3 2 1 0 0 0 0 0 0 0 0 0 0 0 0 0 0 0 0 0 0 0 0 0 0 0 0 0 0 0 0 0 0 0 0
0 1 2 3 4 5 5 4 4 4 2 0 0 0 0 0 0 0 0 0 1 0 0 0 0 0 0 0 0 0 0 0 0 0 0 0 0 0 0 0 0 0 0
0 1 2 3 3 4 4 4 4 3 1 0 0 0 0 0 0 0 0 0 0 0 0 0 0 0 0 0 0 0 0 0 0 0 0 0 0 0 0 0 0 0 0
0 1 3 4 4 3 3 3 3 2 1 0 0 0 0 0 0 0 0 0 0 0 0 0 0 0 0 0 0 0 0 0 0 0 0 0 1 1 1 0 0 0 0
0 1 2 4 5 4 4 4 3 2 1 0 0 0 0 0 0 0 0 1 1 1 0 0 1 1 1 0 0 0 0 0 0 0 0 0 1 2 2 1 0 0 0
0 0 1 3 4 5 5 4 3 2 1 0 0 0 0 0 1 1 1 2 2 1 0 0 1 2 1 0 0 0 0 0 0 0 0 1 1 2 3 2 1 0 0
0 0 0 2 3 4 4 4 3 2 1 1 1 2 3 3 2 2 3 4 3 2 2 2 2 2 1 1 0 0 0 0 0 0 1 2 3 4 3 3 1 1 0
0 0 1 2 2 1 2 2 3 4 4 3 3 4 5 5 3 3 4 4 2 2 3 4 3 3 1 1 1 0 0 0 0 0 1 2 3 3 3 3 3 2 1
1 2 4 4 3 2 1 1 3 6 7 6 5 4 5 4 4 3 4 3 1 1 2 2 3 3 1 0 0 0 0 0 0 0 0 1 2 2 2 3 3 2 1
3 6 8 8 7 7 6 3 3 5 7 7 6 5 4 5 5 5 5 3 1 1 1 2 2 2 1 0 0 0 0 0 0 0 0 0 1 1 1 2 2 2 1
7 9 10 11 13 14 13 9 5 4 6 9 9 9 8 8 8 8 7 5 3 2 2 3 3 3 2 1 0 0 0 0 1 1 1 0 1 1 0 1 1 1 0
10 12 12 12 15 17 17 14 9 6 8 11 13 12 12 12 12 11 10 8 5 3 3 4 3 2 3 2 1 1 0 0 1 1 1 0 0 0 0 0 0 0 1
14 15 15 13 15 17 16 13 10 8 10 14 15 16 15 15 15 14 12 9 6 4 4 4 3 2 2 2 2 2 1 1 1 1 1 1 1 0 0 1 1 1 1
14 15 14 12 14 16 15 12 9 8 11 15 16 16 14 14 14 14 12 9 6 5 4 5 5 3 2 2 2 1 2 2 2 2 2 2 2 1 1 1 2 1 1
12 13 12 12 15 18 16 12 10 10 14 17 17 15 12 11 11 11 10 8 6 5 5 6 6 5 4 3 1 1 2 3 3 3 3 4 5 4 2 2 3 2 1
12 12 12 14 18 21 20 16 15 15 17 19 18 17 13 10 10 10 9 8 6 5 6 8 9 8 5 3 1 1 2 2 2 3 3 5 6 6 5 4 3 2 2
16 16 16 17 19 22 22 21 19 18 18 17 18 18 15 11 10 10 11 10 8 8 8 9 9 8 6 4 2 1 2 2 2 2 3 7 9 9 7 7 5 3 2
22 21 20 19 19 20 21 21 20 19 17 16 18 18 14 11 9 11 13 13 11 11 11 11 9 7 6 4 3 2 2 1 1 1 3 7 10 10 8 9 9 7 6
20 20 21 22 21 20 20 19 18 19 19 19 20 18 14 11 10 11 14 14 14 15 14 12 10 8 6 5 3 2 2 1 1 1 2 5 8 8 7 8 10 9 8
15 17 23 28 27 24 22 19 18 19 20 20 22 21 17 13 11 11 13 14 15 16 15 14 13 11 7 5 3 2 1 1 2 2 1 2 4 4 3 4 7 8 8
12 16 26 33 34 30 27 23 19 17 17 17 20 21 19 15 13 12 11 13 15 17 17 17 16 13 10 8 6 4 2 2 2 1 1 1 1 1 1 2 5 6 7
12 16 26 35 38 35 31 25 19 14 14 15 18 19 18 15 13 12 9 11 16 18 18 17 16 14 12 11 9 7 5 4 2 1 0 0 0 0 1 2 4 5 6
Wind_Speed
9 10 10 9 10 10 10 10 11 11 11 11 11 12 12 12 12 13 13 13 13 13 13 13 12 11 11 11 12 13 13 13 14 14 14 15 14 13 12 11 11 10 14
10 10 10 9 10 10 11 10 10 11 11 11 11 12 12 12 12 13 13 13 13 13 13 12 11 11 11 12 12 13 13 13 13 13 14 13 13 12 11 11 11 9 13
11 11 11 10 11 11 11 10 11 11 11 11 11 11 12 11 12 12 13 12 12 13 13 12 11 11 11 11 12 12 12 11 12 11 11 9 10 12 12 12 13 13 12
11 11 10 12 12 12 11 10 10 11 11 11 11 11 11 11 12 12 13 12 12 13 13 12 11 11 11 12 12 11 10 10 9 8 5 7 8 12 12 12 12 12 11
11 11 12 13 13 12 11 10 10 10 10 10 10 11 11 11 12 12 12 12 12 13 12 12 12 11 11 11 11 10 8 7 7 5 4 6 7 12 12 12 12 12 11
11 12 13 14 13 12 11 11 10 9 9 10 10 10 11 11 11 12 12 12 12 12 11 12 11 11 10 10 9 8 6 5 4 3 6 8 8 11 12 11 11 11 10
11 12 13 13 13 12 11 10 10 9 9 9 10 10 10 10 11 11 11 11 12 11 11 11 11 10 9 8 7 6 5 4 3 3 6 8 9 11 12 11 10 10 10
11 13 13 13 13 12 11 10 9 9 8 9 10 10 10 10 10 10 10 11 11 10 10 10 9 8 7 6 5 4 3 3 3 4 7 8 10 11 11 10 9 9 9
10 12 11 11 11 11 10 9 9 8 8 9 9 9 9 10 10 10 10 10 10 10 9 8 8 7 6 5 3 2 3 3 1 3 7 7 10 11 11 10 9 8 8
8 9 9 10 9 9 9 9 9 8 8 9 9 9 9 10 10 10 9 9 9 9 8 7 7 7 5 4 3 3 3 2 1 4 5 7 11 11 10 9 8 8 8
7 6 7 8 9 8 8 10 9 8 7 8 7 9 7 5 6 7 9 10 9 9 8 7 7 6 5 5 5 4 3 1 3 5 5 9 11 11 10 9 8 7 7
7 7 6 6 6 6 6 7 5 6 5 4 3 6 4 3 3 6 9 9 9 8 7 7 7 6 4 3 4 5 2 2 3 5 6 11 10 10 9 8 8 8 7
6 6 7 6 5 5 4 5 3 3 4 4 3 4 3 3 3 4 4 5 5 6 4 6 6 4 3 2 2 2 2 1 3 5 7 10 10 9 9 8 8 7 7
6 6 7 7 6 5 3 3 3 3 3 3 3 3 3 2 2 2 2 3 3 2 3 2 2 2 2 2 2 2 2 2 4 5 6 10 9 8 8 8 7 7 7
6 7 7 6 6 5 3 1 3 2 3 4 3 2 3 3 2 2 2 2 2 3 3 2 2 2 1 1 2 2 2 4 5 6 5 8 8 8 8 8 7 7 7
5 6 7 7 6 5 3 2 2 2 2 3 3 4 3 3 3 3 3 2 1 2 2 2 2 2 1 1 1 2 2 3 4 5 6 6 7 7 7 7 7 6 6
6 6 6 7 6 5 3 2 2 2 4 3 3 4 3 3 3 2 2 2 2 2 3 2 2 2 2 2 2 2 2 3 4 4 5 5 5 6 7 6 6 6 6
6 5 4 5 7 5 2 1 1 2 3 3 3 4 4 3 3 2 2 2 2 2 2 2 2 1 1 1 2 1 2 3 3 4 4 4 4 4 5 7 6 6 6
6 5 5 5 6 5 3 1 2 2 2 2 3 3 3 3 3 2 2 1 2 2 1 2 3 1 1 1 2 2 1 2 2 3 3 4 4 4 4 6 7 6 6
7 6 5 5 5 4 2 1 1 2 2 2 3 3 3 2 2 2 2 2 1 1 1 2 2 2 1 1 1 2 2 2 2 2 2 2 3 4 5 6 5 4 6
7 6 5 5 4 2 2 1 1 1 1 2 3 3 3 2 3 2 2 2 2 2 1 2 2 2 1 2 2 1 1 1 2 2 2 2 2 2 3 5 4 3 4
7 6 6 5 4 3 2 1 1 1 1 2 3 3 3 3 2 3 3 1 2 2 2 1 1 1 1 1 2 2 1 0 1 1 2 2 3 3 3 5 4 3 3
8 7 6 5 5 3 3 2 1 1 1 2 3 2 2 2 2 2 3 2 2 2 2 2 2 2 1 0 1 1 1 1 0 1 1 2 2 2 2 3 4 4 4
8 8 6 6 5 4 3 2 2 2 2 2 2 2 2 1 2 2 2 2 1 1 2 2 2 1 2 1 0 0 1 2 2 1 0 2 2 2 1 1 3 4 4
9 8 7 7 5 4 3 2 1 1 1 2 2 3 2 2 2 2 2 1 1 1 2 1 1 1 1 0 0 1 1 1 2 2 1 1 1 1 2 1 2 2 3
9 9 9 8 6 5 4 3 2 1 2 2 2 2 1 2 1 2 2 1 1 0 1 1 1 1 1 0 1 0 0 1 1 1 2 1 1 1 2 1 2 2 2
Wind_Direction
96 100 101 101 99 99 97 94 90 89 88 88 89 91 91 92 94 93 98 105 108 108 106 105 103 103 104 105 108 112 112 112 114 117 118 117 117 119 122 124 126 115 117
101 103 103 105 105 102 98 96 94 92 90 90 91 92 91 92 95 95 98 103 107 110 110 110 108 105 108 111 114 117 119 121 122 122 123 121 119 120 121 116 111 117 122
105 108 106 102 107 102 97 95 96 95 92 90 92 94 93 95 96 98 101 102 106 111 111 111 111 107 108 114 119 121 123 126 128 132 136 131 123 120 118 117 117 121 124
104 104 100 108 107 103 99 96 97 96 94 93 95 96 97 97 99 98 100 101 103 107 108 108 110 107 106 113 121 123 126 132 139 145 147 135 126 123 123 123 123 125 125
101 104 106 109 109 106 102 100 97 97 98 99 99 99 99 100 101 101 101 100 103 107 106 105 106 105 105 110 116 123 129 136 147 153 120 110 113 126 128 128 127 129 128
112 110 113 113 111 107 104 100 98 99 100 103 105 104 103 104 104 104 103 104 106 108 108 108 107 108 108 112 118 125 134 146 166 146 129 120 117 130 130 128 129 131 132
114 113 122 120 117 113 109 107 105 104 105 110 111 110 109 109 109 109 107 107 109 110 110 111 113 113 114 116 125 134 149 175 176 118 110 112 122 131 131 130 129 132 133
116 118 125 127 123 120 117 114 113 112 115 118 117 115 113 112 113 111 111 111 112 113 113 115 119 120 121 126 135 153 177 212 143 122 107 113 128 131 131 134 135 137 139
113 120 129 132 130 128 126 125 124 123 125 128 126 124 121 121 121 120 120 122 122 122 123 125 129 131 132 140 156 194 231 243 125 122 117 118 132 134 135 137 143 146 148
115 119 130 134 137 138 135 138 136 135 135 140 140 138 135 132 133 134 135 137 138 136 137 139 142 145 149 163 190 226 257 290 160 116 108 128 137 140 144 148 150 152 154
112 115 123 126 139 143 139 142 150 149 146 150 152 154 156 149 143 141 136 142 145 147 148 151 156 160 169 185 209 229 250 226 121 100 108 134 142 144 150 154 155 157 157
116 120 116 117 124 131 132 139 154 155 149 162 146 152 165 150 140 131 140 150 154 157 161 168 164 165 190 188 199 215 227 162 113 108 120 137 139 143 147 153 156 157 157
113 117 120 116 120 119 120 135 147 145 145 155 145 148 147 145 134 130 145 151 163 170 171 160 173 189 185 165 159 168 190 134 103 104 124 135 140 144 147 149 153 155 157
107 107 103 110 108 102 102 125 136 137 147 138 149 157 141 135 129 133 138 153 164 165 154 163 166 175 167 162 151 143 153 109 100 104 121 131 136 144 149 150 152 158 165
113 107 96 99 102 104 101 94 108 118 138 130 137 130 130 134 134 135 141 152 156 146 156 162 155 152 131 131 134 137 107 102 111 111 121 133 139 146 153 156 159 164 171
112 101 104 108 107 111 114 99 114 134 121 126 142 140 137 131 139 146 153 158 148 142 145 149 142 138 143 124 129 120 107 106 112 122 130 134 139 144 151 160 166 169 170
108 99 101 111 107 106 112 143 141 145 136 133 123 122 126 126 131 147 152 155 159 160 151 150 160 150 162 152 133 123 112 110 122 129 136 142 147 152 152 153 157 164 170
108 102 97 109 109 103 95 79 76 93 110 118 119 123 127 129 146 152 152 156 166 157 150 147 138 133 133 124 127 132 130 131 134 136 141 150 158 159 160 158 158 165 172
112 111 102 88 101 106 101 91 104 91 87 105 112 108 124 139 141 148 144 136 151 133 150 151 122 138 131 127 140 145 148 142 141 146 147 154 153 148 153 159 161 160 170
116 111 108 102 98 110 108 85 87 91 110 107 102 116 126 125 130 128 134 136 126 108 106 104 119 138 150 165 136 128 141 126 138 139 151 139 140 157 159 156 159 159 164
126 123 119 111 108 113 106 107 106 108 105 108 114 114 121 119 117 122 99 124 125 115 122 121 133 150 141 119 100 87 96 122 141 135 138 135 138 146 129 134 147 151 153
136 133 128 125 125 127 117 113 114 105 112 110 98 103 113 114 118 131 117 126 115 124 129 132 146 130 141 145 148 137 117 76 8 126 143 147 139 141 139 140 139 144 144
148 149 147 136 135 131 125 131 97 90 57 86 103 109 108 110 119 97 115 122 125 143 143 162 159 155 157 116 85 135 140 140 100 68 93 110 117 118 133 142 144 146 151
155 152 137 136 136 133 136 129 131 119 95 85 104 113 110 101 100 93 106 110 107 108 136 184 157 166 152 176 133 63 121 136 150 141 179 117 131 137 151 146 140 145 141
161 156 147 140 136 132 141 137 130 100 110 106 101 114 121 118 120 114 116 116 108 120 140 118 118 136 122 150 164 126 102 111 140 153 162 153 129 170 158 148 141 144 139
163 159 155 146 144 148 154 147 146 128 90 87 83 100 140 142 148 142 138 119 112 130 127 128 141 138 113 62 9 24 113 130 159 151 163 170 162 170 156 147 139 132 135